This is the latest recevied weather packets stored in our database for station/object JH4GLG-13. If no packets are shown the sender has not sent any weather packets the latest 10 day(s).
| Time | Temp. | Humidity | Pressure | Rain* | Wind** | Luminosity | Snow |
|---|---|---|---|---|---|---|---|
| 1777028073 | 16.67° C | 69% | 1016.2 hPa | 0 mm | - | - | - |
| 1777027172 | 17.22° C | 68% | 1015.8 hPa | 0 mm | - | - | - |
| 1777026273 | 17.78° C | 64% | 1015.5 hPa | 0 mm | - | - | - |
| 1777025372 | 17.78° C | 58% | 1015.2 hPa | 0 mm | - | - | - |
| 1777024471 | - | - | - | 0 mm | - | - | - |
| 1777023572 | 18.33° C | 55% | 1015 hPa | 0 mm | - | - | - |
| 1777022672 | 18.33° C | 54% | 1014.9 hPa | 0 mm | - | - | - |
| 1777021771 | 18.89° C | 53% | 1015 hPa | 0 mm | - | - | - |
| 1777020873 | 18.89° C | 52% | 1014.8 hPa | 0 mm | - | - | - |
| 1777019971 | 18.33° C | 54% | 1014.5 hPa | 0 mm | - | - | - |
| 1777019072 | 18.33° C | 59% | 1014.3 hPa | 0 mm | - | - | - |
| 1777018170 | 18.89° C | 59% | 1014.4 hPa | 0 mm | - | - | - |
| 1777017276 | 18.33° C | 58% | 1014.2 hPa | 0 mm | - | - | - |
| 1777017272 | 18.33° C | 58% | 1014.3 hPa | 0 mm | - | - | - |
| 1777016370 | 18.33° C | 60% | 1014 hPa | 0 mm | - | - | - |
| 1777015472 | - | - | - | 0 mm | - | - | - |
| 1777014570 | 18.89° C | 58% | 1013.7 hPa | 0 mm | - | - | - |
| 1777013671 | - | - | 1013.7 hPa | 0 mm | - | - | - |
| 1777012770 | 18.89° C | 56% | 1013.7 hPa | 0 mm | - | - | - |
| 1777011871 | 19.44° C | 56% | 1013.5 hPa | 0 mm | - | - | - |
| 1777010969 | 18.89° C | 55% | 1013.2 hPa | 0 mm | - | - | - |
| 1777010071 | 19.44° C | 54% | 1013.2 hPa | 0 mm | - | - | - |
| 1777009170 | 19.44° C | 54% | 1013.2 hPa | 0 mm | - | - | - |
| 1777008274 | 20° C | 55% | 1013.2 hPa | 0 mm | - | - | - |
| 1777008274 | 20° C | 54% | 1013.3 hPa | 0 mm | - | - | - |
* Rain latest hour (hover to see other rain measurements)
** Current wind speed in m/s (hover to see current wind gust speed)